Home > Weather > Anderson > Past weeks

Flag for USA Past Weather in Anderson, South Carolina, USA — Yesterday and Last 2 Weeks

Now
71 °F

Clear.


Feels Like: 72 °F
Forecast: 65 / 85 °F
Wind: No wind

Location: Anderson County Airport

Current Time: May 27, 2016 at 12:51:13 AM

Latest Report: May 26, 2016 at 11:56 PM


Visibility: 10 mi

Pressure: 30.08 "Hg

Humidity: 78%

Dew Point: 64 °F

Location of AndersonLocation

Past Weather in Anderson — Graph

°F

Anderson Temperature Yesterday

Maximum temperature yesterday: 86 °F (at 2:56 PM)
Minimum temperature yesterday: 63 °F (at 3:56 AM)
Average temperature yesterday: 75 °F

High & Low Weather Summary for the Past Weeks

 TemperatureHumidityPressure
High88 °F (May 12, 3:56 PM)97% (May 12, 11:56 PM)30.24 "Hg (May 12, 11:56 PM)
Low47 °F (May 15, 6:56 AM)21% (May 15, 4:56 PM)29.82 "Hg (May 14, 5:56 PM)
Average68 °F67%30.03 "Hg
* Reported May 11 10:56 PM — May 26 10:56 PM, Anderson, Weather by CustomWeather, © 2016

Note: Actual official high and low records may vary slightly from our data, if they occured in-between our weather recording intervals... More about our weather records

Advertising

Anderson Weather History for the Previous 24 Hours

Scroll right to see more
 ConditionsComfort  
Time TempWeatherWind HumidityBarometerVisibility
10:56 PM
Thu, May 26
73 °FPassing clouds.No wind74%30.07 "Hg10 mi
9:56 PM74 °FClear.No wind71%30.08 "Hg10 mi
8:56 PM76 °FPassing clouds.No wind64%30.07 "Hg10 mi
7:56 PM77 °FSunny.No wind62%30.06 "Hg10 mi
6:56 PM84 °FThundershowers. Sunny.No wind46%30.05 "Hg10 mi
5:56 PM82 °FPartly sunny.7 mph49%30.06 "Hg10 mi
4:56 PM86 °FSunny.5 mph40%30.06 "Hg10 mi
3:56 PM86 °FPassing clouds.N/A43%30.09 "Hg10 mi
2:56 PM86 °FPassing clouds.6 mph45%30.11 "Hg10 mi
1:56 PM85 °FSunny.5 mph48%30.13 "Hg10 mi
12:56 PM85 °FSunny.6 mph45%30.15 "Hg10 mi
11:56 AM82 °FSunny.5 mph51%30.16 "Hg10 mi
10:56 AM79 °FPartly sunny.7 mph56%30.16 "Hg10 mi
9:56 AM76 °FSunny.7 mph60%30.16 "Hg10 mi
8:56 AM72 °FSunny.7 mph68%30.17 "Hg10 mi
7:56 AM67 °FPassing clouds.No wind81%30.17 "Hg10 mi
6:56 AM63 °FClear.No wind87%30.16 "Hg10 mi
5:56 AM65 °FClear.No wind81%30.14 "Hg10 mi
4:56 AM63 °FClear.No wind87%30.13 "Hg10 mi
3:56 AM63 °FClear.No wind87%30.13 "Hg10 mi
2:56 AM64 °FClear.No wind84%30.13 "Hg10 mi
1:56 AM66 °FClear.No wind78%30.13 "Hg10 mi
12:56 AM67 °FClear.No wind79%30.14 "Hg10 mi
Weather by CustomWeather, © 2016

See weather overviewHow to use our weather pages